Stündliche Wetter Holovne

Heute, 22 Juni, Dienstag

Zeit Temperatur Niederschläge Wind Luftdruck Luftfeuchtigkeit
00:00 +20°C° 0 mm 3 m/S 741 mmHg 90%
01:00 +19°C° 0 mm 3 m/S 740 mmHg 92%
02:00 +19°C° 0 mm 3 m/S 740 mmHg 94%
03:00 +19°C° 0 mm 3 m/S 740 mmHg 94%
04:00 +19°C° 0 mm 3 m/S 740 mmHg 95%
05:00 +19°C° 0 mm 3 m/S 740 mmHg 95%
06:00 +20°C° 0 mm 3 m/S 741 mmHg 88%
07:00 +22°C° 0 mm 4 m/S 741 mmHg 82%
08:00 +25°C° 0 mm 5 m/S 741 mmHg 74%
09:00 +26°C° 0 mm 5 m/S 741 mmHg 69%
10:00 +27°C° 0 mm 5 m/S 741 mmHg 64%
11:00 +29°C° 0 mm 5 m/S 741 mmHg 59%
12:00 +29°C° 0 mm 5 m/S 741 mmHg 57%
13:00 +30°C° 0 mm 4 m/S 741 mmHg 55%
14:00 +30°C° 0 mm 4 m/S 741 mmHg 53%
15:00 +30°C° 0 mm 4 m/S 741 mmHg 54%
16:00 +30°C° 0 mm 4 m/S 741 mmHg 55%
17:00 +30°C° 0 mm 4 m/S 741 mmHg 57%
18:00 +29°C° 0 mm 3 m/S 741 mmHg 63%
19:00 +27°C° 0 mm 3 m/S 741 mmHg 70%
20:00 +26°C° 0 mm 2 m/S 741 mmHg 76%
21:00 +25°C° 0 mm 2 m/S 741 mmHg 79%
22:00 +24°C° 0 mm 2 m/S 741 mmHg 82%
23:00 +23°C° 0 mm 2 m/S 742 mmHg 84%

Morgen, 23 Juni, Mittwoch

Zeit Temperatur Niederschläge Wind Luftdruck Luftfeuchtigkeit
00:00 +21°C° 0.1 mm 2 m/S 742 mmHg 86%
01:00 +21°C° 0.1 mm 2 m/S 742 mmHg 88%
02:00 +21°C° 0.1 mm 2 m/S 742 mmHg 90%
03:00 +22°C° 0 mm 1 m/S 742 mmHg 90%
04:00 +22°C° 0 mm 1 m/S 742 mmHg 90%
05:00 +22°C° 0 mm 1 m/S 742 mmHg 90%
06:00 +23°C° 0 mm 2 m/S 743 mmHg 85%
07:00 +25°C° 0 mm 2 m/S 743 mmHg 81%
08:00 +26°C° 0 mm 2 m/S 743 mmHg 77%
09:00 +27°C° 0 mm 2 m/S 744 mmHg 71%
10:00 +28°C° 0 mm 2 m/S 744 mmHg 66%
11:00 +30°C° 0 mm 2 m/S 744 mmHg 61%
12:00 +30°C° 0.1 mm 2 m/S 744 mmHg 58%
13:00 +31°C° 0.1 mm 2 m/S 744 mmHg 55%
14:00 +32°C° 0.1 mm 2 m/S 744 mmHg 52%
15:00 +32°C° 0 mm 2 m/S 744 mmHg 53%
16:00 +32°C° 0 mm 2 m/S 744 mmHg 55%
17:00 +31°C° 0 mm 2 m/S 744 mmHg 57%
18:00 +30°C° 0.1 mm 2 m/S 744 mmHg 63%
19:00 +28°C° 0.1 mm 1 m/S 744 mmHg 70%
20:00 +27°C° 0.1 mm 1 m/S 744 mmHg 76%
21:00 +26°C° 0.1 mm 1 m/S 744 mmHg 79%
22:00 +25°C° 0.1 mm 1 m/S 744 mmHg 81%
23:00 +24°C° 0.1 mm 1 m/S 744 mmHg 83%

übermorgen, 24 Juni, Donnerstag

Zeit Temperatur Niederschläge Wind Luftdruck Luftfeuchtigkeit
00:00 +23°C° 0 mm 1 m/S 744 mmHg 85%
01:00 +23°C° 0 mm 1 m/S 744 mmHg 86%
02:00 +22°C° 0 mm 1 m/S 744 mmHg 88%
03:00 +22°C° 0 mm 1 m/S 744 mmHg 88%
04:00 +22°C° 0 mm 1 m/S 744 mmHg 89%
05:00 +20°C° 0 mm 0 m/S 744 mmHg 89%
06:00 +22°C° 0 mm 0 m/S 744 mmHg 84%
07:00 +23°C° 0 mm 0 m/S 745 mmHg 80%
08:00 +27°C° 0 mm 1 m/S 745 mmHg 75%
09:00 +28°C° 0 mm 1 m/S 745 mmHg 70%
10:00 +29°C° 0 mm 1 m/S 745 mmHg 65%
11:00 +31°C° 0 mm 1 m/S 745 mmHg 60%
12:00 +31°C° 0.1 mm 1 m/S 745 mmHg 56%
13:00 +32°C° 0.1 mm 1 m/S 745 mmHg 53%
14:00 +33°C° 0.1 mm 1 m/S 745 mmHg 50%
15:00 +32°C° 0 mm 1 m/S 744 mmHg 51%
16:00 +32°C° 0 mm 1 m/S 744 mmHg 51%
17:00 +32°C° 0 mm 1 m/S 744 mmHg 52%
18:00 +30°C° 0.1 mm 1 m/S 744 mmHg 59%
19:00 +29°C° 0.1 mm 1 m/S 744 mmHg 66%
20:00 +27°C° 0.1 mm 1 m/S 744 mmHg 73%
21:00 +26°C° 0.6 mm 1 m/S 744 mmHg 78%
22:00 +24°C° 0.6 mm 2 m/S 743 mmHg 83%
23:00 +23°C° 0.6 mm 2 m/S 743 mmHg 88%

25 Juni, Freitag

Zeit Temperatur Niederschläge Wind Luftdruck Luftfeuchtigkeit
00:00 +23°C° 0.6 mm 2 m/S 743 mmHg 88%
01:00 +23°C° 0.6 mm 1 m/S 743 mmHg 89%
02:00 +22°C° 0.6 mm 1 m/S 743 mmHg 89%
03:00 +21°C° 0.2 mm 2 m/S 743 mmHg 91%
04:00 +21°C° 0.2 mm 2 m/S 742 mmHg 92%
05:00 +21°C° 0.2 mm 2 m/S 742 mmHg 93%
06:00 +24°C° 0.1 mm 3 m/S 742 mmHg 88%
07:00 +25°C° 0.1 mm 4 m/S 742 mmHg 83%
08:00 +27°C° 0.1 mm 5 m/S 742 mmHg 78%
09:00 +29°C° 0 mm 5 m/S 742 mmHg 70%
10:00 +30°C° 0 mm 5 m/S 742 mmHg 63%
11:00 +33°C° 0 mm 5 m/S 742 mmHg 56%
12:00 +33°C° 0 mm 5 m/S 742 mmHg 55%
13:00 +34°C° 0 mm 5 m/S 741 mmHg 54%
14:00 +34°C° 0 mm 5 m/S 741 mmHg 53%
15:00 +34°C° 0 mm 5 m/S 741 mmHg 55%
16:00 +33°C° 0 mm 5 m/S 741 mmHg 58%
17:00 +33°C° 0 mm 5 m/S 740 mmHg 60%
18:00 +29°C° 1.6 mm 4 m/S 740 mmHg 68%
19:00 +27°C° 1.6 mm 3 m/S 741 mmHg 76%
20:00 +24°C° 1.6 mm 2 m/S 741 mmHg 83%
21:00 +22°C° 0.8 mm 3 m/S 741 mmHg 86%
22:00 +21°C° 0.8 mm 4 m/S 742 mmHg 88%
23:00 +20°C° 0.8 mm 4 m/S 742 mmHg 91%

26 Juni, Samstag

Zeit Temperatur Niederschläge Wind Luftdruck Luftfeuchtigkeit
00:00 +19°C° 0.2 mm 4 m/S 742 mmHg 91%
01:00 +19°C° 0.2 mm 3 m/S 742 mmHg 92%
02:00 +18°C° 0.2 mm 3 m/S 743 mmHg 93%
03:00 +17°C° 0 mm 3 m/S 743 mmHg 92%
04:00 +16°C° 0 mm 3 m/S 743 mmHg 92%
05:00 +14°C° 0 mm 4 m/S 743 mmHg 91%
06:00 +15°C° 0 mm 4 m/S 744 mmHg 85%
07:00 +17°C° 0 mm 4 m/S 744 mmHg 79%
08:00 +19°C° 0 mm 5 m/S 744 mmHg 73%
09:00 +20°C° 0 mm 5 m/S 744 mmHg 68%
10:00 +21°C° 0 mm 5 m/S 744 mmHg 62%
11:00 +23°C° 0 mm 5 m/S 744 mmHg 57%
12:00 +23°C° 0 mm 5 m/S 744 mmHg 55%
13:00 +25°C° 0 mm 4 m/S 744 mmHg 53%
14:00 +26°C° 0 mm 4 m/S 744 mmHg 51%
15:00 +25°C° 0 mm 4 m/S 744 mmHg 51%
16:00 +25°C° 0 mm 4 m/S 744 mmHg 51%
17:00 +25°C° 0 mm 4 m/S 744 mmHg 52%
18:00 +24°C° 0 mm 3 m/S 744 mmHg 58%
19:00 +21°C° 0 mm 3 m/S 744 mmHg 65%
20:00 +20°C° 0 mm 2 m/S 744 mmHg 72%
21:00 +19°C° 0 mm 2 m/S 744 mmHg 75%
22:00 +18°C° 0 mm 3 m/S 744 mmHg 79%
23:00 +16°C° 0 mm 3 m/S 744 mmHg 83%

27 Juni, Sonntag

Zeit Temperatur Niederschläge Wind Luftdruck Luftfeuchtigkeit
00:00 +16°C° 0 mm 2 m/S 744 mmHg 86%
01:00 +15°C° 0 mm 2 m/S 744 mmHg 88%
02:00 +15°C° 0 mm 2 m/S 744 mmHg 90%
03:00 +15°C° 0 mm 2 m/S 744 mmHg 91%
04:00 +15°C° 0 mm 2 m/S 745 mmHg 91%
05:00 +15°C° 0 mm 2 m/S 745 mmHg 91%
06:00 +16°C° 0 mm 2 m/S 745 mmHg 85%
07:00 +18°C° 0 mm 2 m/S 745 mmHg 79%
08:00 +19°C° 0 mm 2 m/S 745 mmHg 73%
09:00 +21°C° 0 mm 2 m/S 745 mmHg 69%
10:00 +23°C° 0 mm 2 m/S 745 mmHg 64%
11:00 +24°C° 0 mm 2 m/S 745 mmHg 59%
12:00 +25°C° 0 mm 2 m/S 745 mmHg 57%
13:00 +25°C° 0 mm 2 m/S 745 mmHg 54%
14:00 +26°C° 0 mm 2 m/S 745 mmHg 52%
15:00 +26°C° 0 mm 2 m/S 745 mmHg 54%
16:00 +25°C° 0 mm 2 m/S 745 mmHg 56%
17:00 +25°C° 0 mm 2 m/S 745 mmHg 58%
18:00 +24°C° 0 mm 2 m/S 745 mmHg 64%
19:00 +23°C° 0 mm 2 m/S 745 mmHg 70%
20:00 +22°C° 0 mm 1 m/S 745 mmHg 75%
21:00 +21°C° 0 mm 1 m/S 745 mmHg 77%
22:00 +20°C° 0 mm 1 m/S 745 mmHg 79%
23:00 +19°C° 0 mm 1 m/S 745 mmHg 81%
Mehr zeigen

Wir brauchen deine Erlaubnis

Meteoprog und unser Service Anbieter werden persönliche Daten aufbewahren, so wie Cookies, Geräte Bezeichnung oder ähnliche Technologien von deinem Gerät und Prozess, so wie Persönliche Daten Inhalte und Werbungen, genauso wie social Media und den Verkehr zu analysieren.

  • Aufbewahrung und/oder Zugang zu deiner Geräte Informationen.

    Cookies, Geräte Bezeichnung oder andere Informationen, können aufbewahrt oder Zugang zu deinem Gerät erhalten, für den Grund, der oben angegeben wird.

  • Personalisierte Werbung und Inhalte, Messungen, Einblick in das Publikum und Produkt Entwicklung.

    Werbungen und Inhalte können personalisiert werden, basierend auf ein Profil. Mehr Daten können besser personalisierte Werbungen und Inhalte hinzufügen. Werbung und Inhalte können gezeigt und gemessen werden. Einblicke über das Publikum, welche die Werbung gesehen haben und den Inhalt, können abgeleitet werden. So wie Daten können genutzt werden, um es zu verbessern oder die Benutzer Erfahrung zu verbessern das System und die Software.

Wenn du “Ich stimme zu” klickst, erlaubst du uns, die Cookies zu benutzen die Geräte Bezeichnung, den Web oder ähnliche Technologien zu benutzen. Deine Settings, können in deinem Gerät bei deinem Browser geändert werden.

Für den bestimmten Zweck, berechtigten Interessen beruhen darauf, mehr als auf den Inhalt. Du kannst mehr darüber in unseren Privaten und Cookie Politik lesen.